TimeEET,TemperatureF,Dew PointF,Humidity,Sea Level PressureIn,VisibilityMPH,Wind Direction,Wind SpeedMPH,Gust SpeedMPH,PrecipitationIn,Events,Conditions,WindDirDegrees,DateUTC
12:00 AM,75.2,66.2,73,29.86,6.2,North,6.9,-,N/A,,Scattered Clouds,350,2013-07-06 22:00:00
1:00 AM,75.2,68.0,78,29.83,6.2,NNW,6.9,-,N/A,,Scattered Clouds,330,2013-07-06 23:00:00
2:00 AM,75,68,74,29.84,6,WNW,5.8,,,,Scattered Clouds,300,2013-07-07 00:00:00
2:00 AM,75.2,68.0,78,29.83,6.2,WNW,5.8,-,N/A,,Partly Cloudy,300,2013-07-07 00:00:00
3:00 AM,73.4,68.0,83,29.83,6.2,NW,5.8,-,N/A,,Partly Cloudy,320,2013-07-07 01:00:00
4:00 AM,73.4,68.0,83,29.83,6.2,WNW,3.5,-,N/A,,Partly Cloudy,300,2013-07-07 02:00:00
5:00 AM,73.4,68.0,83,29.83,6.2,WNW,5.8,-,N/A,,Scattered Clouds,290,2013-07-07 03:00:00
6:00 AM,75.2,69.8,83,29.83,6.2,NW,4.6,-,N/A,,Scattered Clouds,320,2013-07-07 04:00:00
7:00 AM,77.0,69.8,78,29.83,6.2,NW,4.6,-,N/A,,Scattered Clouds,310,2013-07-07 05:00:00
8:00 AM,80,70,64,29.85,6,NW,5.8,,,,Partly Cloudy,320,2013-07-07 06:00:00
8:00 AM,75.2,69.8,83,29.83,6.2,NW,5.8,-,N/A,,Scattered Clouds,320,2013-07-07 06:00:00
9:00 AM,80.6,69.8,70,29.86,6.2,North,9.2,-,N/A,,Scattered Clouds,350,2013-07-07 07:00:00
10:00 AM,82.4,69.8,66,29.86,6.2,NW,8.1,-,N/A,,Scattered Clouds,310,2013-07-07 08:00:00
11:00 AM,82.4,69.8,66,29.86,6.2,NW,8.1,-,N/A,,Scattered Clouds,320,2013-07-07 09:00:00
12:00 PM,84.2,69.8,62,29.86,6.2,NW,9.2,-,N/A,,Scattered Clouds,320,2013-07-07 10:00:00
1:00 PM,84.2,69.8,62,29.89,6.2,North,9.2,-,N/A,,Scattered Clouds,350,2013-07-07 11:00:00
2:00 PM,86,68,46,29.88,6,NW,9.2,,,,Scattered Clouds,320,2013-07-07 12:00:00
2:00 PM,86.0,35.6,17,29.89,6.2,NW,9.2,-,N/A,,Partly Cloudy,320,2013-07-07 12:00:00
3:00 PM,84.2,71.6,66,29.89,-9999.0,NW,9.2,-,N/A,,Clear,320,2013-07-07 13:00:00
4:00 PM,84.2,69.8,62,29.86,-9999.0,NNW,9.2,-,N/A,,Clear,340,2013-07-07 14:00:00
5:00 PM,82.4,69.8,66,29.86,-9999.0,NW,11.5,-,N/A,,Clear,320,2013-07-07 15:00:00
6:00 PM,80.6,69.8,70,29.86,-9999.0,NW,8.1,-,N/A,,Clear,320,2013-07-07 16:00:00
7:00 PM,78.8,69.8,74,29.89,-9999.0,NW,9.2,-,N/A,,Clear,320,2013-07-07 17:00:00
8:00 PM,77,69,71,29.91,6,NNW,6.9,,,,,330,2013-07-07 18:00:00
8:00 PM,77.0,69.8,78,29.92,-9999.0,NNW,6.9,-,N/A,,Clear,330,2013-07-07 18:00:00
9:00 PM,77.0,68.0,74,29.92,6.2,NW,5.8,-,N/A,,Partly Cloudy,320,2013-07-07 19:00:00
10:00 PM,77.0,68.0,74,29.92,6.2,North,4.6,-,N/A,,Partly Cloudy,350,2013-07-07 20:00:00
11:00 PM,77.0,68.0,74,29.92,6.2,NNW,5.8,-,N/A,,Partly Cloudy,340,2013-07-07 21:00:00